TimeEDT,TemperatureF,Dew PointF,Humidity,Sea Level PressureIn,VisibilityMPH,Wind Direction,Wind SpeedMPH,Gust SpeedMPH,PrecipitationIn,Events,Conditions,WindDirDegrees,DateUTC
12:54 AM,59.0,57.0,93,30.13,10.0,Calm,Calm,-,N/A,,Clear,0,2013-09-05 04:54:00
1:54 AM,59.0,57.0,93,30.13,9.0,Calm,Calm,-,N/A,,Clear,0,2013-09-05 05:54:00
2:54 AM,57.9,57.0,97,30.13,7.0,Calm,Calm,-,N/A,,Clear,0,2013-09-05 06:54:00
3:54 AM,57.0,55.9,96,30.14,5.0,Calm,Calm,-,N/A,,Clear,0,2013-09-05 07:54:00
4:54 AM,59.0,57.0,93,30.14,5.0,Calm,Calm,-,N/A,,Clear,0,2013-09-05 08:54:00
5:19 AM,55.4,55.4,100,30.16,2.5,Calm,Calm,-,N/A,,Clear,0,2013-09-05 09:19:00
5:27 AM,57.2,57.2,100,30.16,4.0,Calm,Calm,-,N/A,,Clear,0,2013-09-05 09:27:00
5:54 AM,57.9,57.0,97,30.15,4.0,Calm,Calm,-,N/A,,Clear,0,2013-09-05 09:54:00
6:20 AM,55.4,55.4,100,30.16,0.8,Calm,Calm,-,N/A,,Clear,0,2013-09-05 10:20:00
6:29 AM,57.2,55.4,94,30.16,2.0,Calm,Calm,-,N/A,,Clear,0,2013-09-05 10:29:00
6:37 AM,57.2,55.4,94,30.17,7.0,Calm,Calm,-,N/A,,Clear,0,2013-09-05 10:37:00
6:54 AM,55.9,55.0,97,30.16,7.0,Calm,Calm,-,N/A,,Clear,0,2013-09-05 10:54:00
7:13 AM,53.6,53.6,100,30.17,1.8,Calm,Calm,-,N/A,,Clear,0,2013-09-05 11:13:00
7:27 AM,55.4,55.4,100,30.17,3.0,Calm,Calm,-,N/A,,Clear,0,2013-09-05 11:27:00
7:37 AM,55.4,53.6,94,30.17,1.2,Calm,Calm,-,N/A,,Clear,0,2013-09-05 11:37:00
7:44 AM,55.4,53.6,94,30.18,3.0,Calm,Calm,-,N/A,,Clear,0,2013-09-05 11:44:00
7:54 AM,55.9,54.0,93,30.18,4.0,Calm,Calm,-,N/A,,Clear,0,2013-09-05 11:54:00
8:54 AM,68.0,59.0,73,30.18,10.0,North,3.5,-,N/A,,Clear,10,2013-09-05 12:54:00
9:54 AM,71.1,57.9,63,30.19,10.0,NNE,6.9,-,N/A,,Clear,30,2013-09-05 13:54:00
10:54 AM,73.9,61.0,64,30.19,10.0,North,5.8,-,N/A,,Clear,10,2013-09-05 14:54:00
11:54 AM,75.9,59.0,56,30.20,10.0,Variable,5.8,-,N/A,,Clear,0,2013-09-05 15:54:00
12:54 PM,79.0,59.0,50,30.19,10.0,Variable,4.6,-,N/A,,Clear,0,2013-09-05 16:54:00
1:54 PM,81.0,60.1,49,30.18,10.0,Variable,6.9,-,N/A,,Clear,0,2013-09-05 17:54:00
2:54 PM,81.0,59.0,47,30.17,10.0,NNW,8.1,-,N/A,,Scattered Clouds,330,2013-09-05 18:54:00
3:54 PM,82.0,59.0,45,30.15,10.0,WNW,9.2,-,N/A,,Partly Cloudy,300,2013-09-05 19:54:00
4:54 PM,81.0,59.0,47,30.14,10.0,NW,9.2,-,N/A,,Partly Cloudy,320,2013-09-05 20:54:00
5:54 PM,80.1,59.0,48,30.15,10.0,NNW,6.9,-,N/A,,Clear,340,2013-09-05 21:54:00
6:54 PM,79.0,60.1,52,30.14,10.0,North,9.2,-,N/A,,Clear,10,2013-09-05 22:54:00
7:54 PM,72.0,57.9,61,30.16,10.0,NNE,10.4,-,N/A,,Clear,30,2013-09-05 23:54:00
8:54 PM,64.9,54.0,68,30.17,10.0,NE,6.9,-,N/A,,Clear,40,2013-09-06 00:54:00
9:54 PM,62.1,53.1,72,30.19,10.0,NE,9.2,-,N/A,,Clear,40,2013-09-06 01:54:00
10:54 PM,61.0,48.0,62,30.20,10.0,ENE,5.8,-,N/A,,Clear,60,2013-09-06 02:54:00
11:54 PM,57.9,46.9,67,30.21,10.0,NE,8.1,-,N/A,,Clear,50,2013-09-06 03:54:00